This is the latest recevied weather packets stored in our database for station/object AB8Y-13. If no packets are shown the sender has not sent any weather packets the latest 10 day(s).
| Time | Temp. | Humidity | Pressure | Rain* | Wind** | Luminosity | Snow |
|---|---|---|---|---|---|---|---|
| 1777754583 | 10° C | 37% | 1016.1 hPa | 0 mm | - | 363 W/m² | - |
| 1777754281 | 10° C | 37% | 1016.1 hPa | 0 mm | - | 218 W/m² | - |
| 1777753978 | 10° C | 35% | 1016.2 hPa | 0 mm | - | 270 W/m² | - |
| 1777753678 | 10° C | 34% | 1016.1 hPa | 0 mm | - | 262 W/m² | - |
| 1777753376 | 10° C | 33% | 1016.2 hPa | 0 mm | - | 494 W/m² | - |
| 1777753074 | 11.11° C | 35% | 1016.4 hPa | 0 mm | - | 312 W/m² | - |
| 1777752770 | 10.56° C | 38% | 1016.5 hPa | 0 mm | - | 476 W/m² | - |
| 1777752466 | 10° C | 37% | 1016.6 hPa | 0 mm | - | 364 W/m² | - |
| 1777752162 | 9.44° C | 34% | 1016.5 hPa | 0 mm | - | 299 W/m² | - |
| 1777751861 | 9.44° C | 36% | 1016.7 hPa | 0 mm | - | 273 W/m² | - |
| 1777751557 | 9.44° C | 34% | 1016.6 hPa | 0 mm | - | 273 W/m² | - |
| 1777751253 | 9.44° C | 32% | 1016.7 hPa | 0 mm | - | 315 W/m² | - |
| 1777750951 | 9.44° C | 34% | 1016.8 hPa | 0 mm | - | 316 W/m² | - |
| 1777750646 | 10.56° C | 32% | 1016.9 hPa | 0 mm | - | 292 W/m² | - |
| 1777750344 | 10° C | 36% | 1016.9 hPa | 0 mm | - | 362 W/m² | - |
| 1777750043 | 10.56° C | 32% | 1017 hPa | 0 mm | - | 397 W/m² | - |
| 1777749741 | 10.56° C | 38% | 1016.9 hPa | 0 mm | - | 440 W/m² | - |
| 1777749438 | 11.11° C | 32% | 1017 hPa | 0 mm | - | 527 W/m² | - |
| 1777749136 | 10.56° C | 35% | 1017 hPa | 0 mm | - | 1171 W/m² | - |
| 1777748833 | 10.56° C | 32% | 1017 hPa | 0 mm | - | 343 W/m² | - |
| 1777748531 | 10.56° C | 30% | 1017 hPa | 0 mm | - | 1048 W/m² | - |
| 1777748230 | 10.56° C | 34% | 1017 hPa | 0 mm | - | 548 W/m² | - |
| 1777747927 | 9.44° C | 38% | 1017.1 hPa | 0 mm | - | 1053 W/m² | - |
| 1777747623 | 9.44° C | 39% | 1017.3 hPa | 0 mm | - | 337 W/m² | - |
| 1777747324 | 10° C | 35% | 1017.2 hPa | 0 mm | - | 264 W/m² | - |
* Rain latest hour (hover to see other rain measurements)
** Current wind speed in m/s (hover to see current wind gust speed)